Regional Weather Roundup
Issued by NWS Sterling, VA

Home | Current Version | Previous Version | Graphics & Text | Print | Product List | Glossary On
Versions: 1 2 3 4 5 6 7 8 9 10 11 12 13 14 15 16 17 18 19 20 21 22 23 24 25 26 27
000
ASUS41 KLWX 191811
RWRLWX

REGIONAL WEATHER ROUNDUP
NATIONAL WEATHER SERVICE BALTIMORE MD/WASHINGTON DC
200 PM EDT TUE SEP 19 2017

Note: "FAIR" indicates few or no clouds below 12,000 feet
with no significant weather and/or obstructions to visibility.
 TC=TEMPERATURE CELSIUS

 * =Non NWS site. Station does not report precipitation (e.g. rain,
    snow, etc.), thunder, or fog.

DCZ001-MDZ009-015-VAZ040>042-051-053>054-191900-
WASHINGTON METRO

CITY           SKY/WX    TMP DP  RH WIND       PRES   REMARKS
WASHINGTON NAT MOSUNNY   82  68  62 NW13      29.95F
DULLES         MOSUNNY   80  66  62 N12       29.97F
ANDREWS AFB    MOSUNNY   80  66  62 N12G22    29.93F
FT BELVOIR     SUNNY     80  66  60 NW13      29.94F
QUANTICO       MOSUNNY   81  67  62 N13G23    29.95F
COLLEGE PARK*  PTSUNNY   79  66  64 N5        29.95F
LEESBURG*      PTSUNNY   79  68  69 N9        29.99F
MANASSAS*      MOSUNNY   81  67  62 N14G21    29.96F
GAITHERSBURG*  MOSUNNY   78  67  68 VRB3      29.99F

$$

MDZ006>007-011-014-191900-
BALTIMORE METRO

CITY           SKY/WX    TMP DP  RH WIND       PRES   REMARKS
BWI AIRPORT    MOSUNNY   80  66  62 N10G20    29.94F
MD SCIENCE CTR   N/A     81  66  60 MISG      29.94F
MARTIN STATE   PTSUNNY   81  70  69 NW9       29.95F
ANNAPOLIS      MOSUNNY   80  69  69 N12       29.92F
FORT MEADE*    PTSUNNY   79  66  65 NW8G17    29.97F

$$

MDZ012-015-019>023-191900-
MARYLAND EASTERN SHORE

CITY           SKY/WX    TMP DP  RH WIND       PRES   REMARKS
OCEAN CITY     CLOUDY    70  69  97 N21G28    29.81F
SALISBURY      LGT RAIN  71  69  93 N10       29.85F FOG
CAMBRIDGE*     CLOUDY    77  66  69 N14       29.89F
EASTON*        PTSUNNY   79  66  65 N12G23    29.94F

$$

MDZ017>025-191900-
SOUTHERN MARYLAND

CITY           SKY/WX    TMP DP  RH WIND       PRES   REMARKS
PATUXENT RIVER CLOUDY    77  68  73 N17G26    29.90F
ST INIGOES     CLOUDY    77  68  73 VRB6      29.89F
LEONARDTOWN*   CLOUDY    77  64  65 N3        29.92

$$

MDZ003>005-191900-
NORTH CENTRAL MARYLAND

CITY           SKY/WX    TMP DP  RH WIND       PRES   REMARKS
FREDERICK*     MOSUNNY   81  64  57 NE8       30.01F
HAGERSTOWN APT SUNNY     80  64  58 N7        29.99F
WESTMINSTER*   PTSUNNY   75  66  73 NW7       30.00F

$$

MDZ501>502-191900-
WESTERN MARYLAND

CITY           SKY/WX    TMP DP  RH WIND       PRES   REMARKS
OAKLAND*       PTSUNNY   70  57  64 E3        30.07F
CUMBERLAND*    MOSUNNY   81  61  50 SE3       30.05F

$$

VAZ025>031-191900-
SHENANDOAH VALLEY

CITY           SKY/WX    TMP DP  RH WIND       PRES   REMARKS
WINCHESTER*    SUNNY     77  63  61 CALM      29.99F
FRONT ROYAL*   SUNNY     77  64  65 CALM      29.99F
LURAY*         SUNNY     79  63  57 NE3       29.99F
NEW MARKET*    SUNNY     80  60  50 SE3       29.99F
STAUNTON*      SUNNY     76  61  60 CALM      30.04F
WAYNESBORO*    MOSUNNY   75  64  67 W3        30.03F

$$

WVZ021-048>050-054>055-191900-
EASTERN WEST VIRGINIA PANHANDLE

CITY           SKY/WX    TMP DP  RH WIND       PRES   REMARKS
MARTINSBURG    SUNNY     79  63  57 CALM      29.99F
PETERSBURG*    SUNNY     82  64  54 CALM      30.00F

$$

VAZ036>039-050-191900-
CENTRAL FOOTHILLS

CITY           SKY/WX    TMP DP  RH WIND       PRES   REMARKS
CHARLOTTESVILL MOSUNNY   84  60  44 CALM      29.96F
CULPEPER*      SUNNY     82  67  61 N8        29.98F
ORANGE*        SUNNY     79  64  61 CALM      29.96F
GORDONSVILLE*  PTSUNNY   81  67  61 N5        29.96F
WARRENTON*     SUNNY     81  62  52 N8        29.97F

$$

VAZ055>057-191900-
NORTH AND CENTRAL PIEDMONT

CITY           SKY/WX    TMP DP  RH WIND       PRES   REMARKS
FREDERICKSBRG* MOSUNNY   80  67  64 NW10      29.94F
STAFFORD*      SUNNY     79  66  64 NW10G17   29.99F

$$

NCZ024-NYZ072-PAZ021-071-VAZ022-071-191900-
OTHER REGIONAL OBSERVATIONS

CITY           SKY/WX    TMP DP  RH WIND       PRES   REMARKS
NEW YORK CITY  CLOUDY    77  63  61 NE10G20   29.97F
PHILADELPHIA   CLOUDY    79  64  60 N12G23    29.91F
PITTSBURGH     MOSUNNY   80  61  52 CALM      30.01F
ROANOKE        MOSUNNY   79  64  60 CALM      30.03F
RICHMOND       PTSUNNY   81  67  62 N12       29.93F
RALEIGH        MOSUNNY   82  64  54 W8        29.96F

$$

ANZ530>537-191900-
MARINE OBSERVATIONS

STATION/POSITION TIME  TEMP    WIND        PRES
                       AIR SEA DIR/SP/G
                 (UTC) (F)     (DEG/KT/KT) (MB)
THOMAS PT LIGHT  1800   77 75  360/ 15/ 16   N/A
BALT KEY BRIDGE  1742   78      10/ 13/ 17 1013.7F
COVE POINT       1742   75      10/ 12/ 20 1013.3F
LEWISETTA        1742   76 75   10/ 11/ 19 1012.4F
SOLOMONS ISLAND  1742   77 76  350/ 15/ 22 1012.2F
PINEY POINT      1742          360/ 19/ 22   N/A

$$





USA.gov is the U.S. government's official web portal to all federal, state and local government web resources and services.